Regional Weather Roundup
Issued by NWS

Home | Current Version | Previous Version | Text Only | Print | Product List | Glossary On
Versions: 1 2 3 4 5 6 7 8 9 10 11 12 13 14 15 16 17 18 19 20 21 22 23 24 25 26 27 28 29 30 31 32 33 34 35 36 37 38 39 40 41 42 43 44 45 46 47 48 49 50
000
ASUS43 KTOP 190008
RWRKS

WEATHER ROUNDUP FOR KANSAS
NATIONAL WEATHER SERVICE GOODLAND KS
600 PM CST THU JAN 18 2018

NOTE:  "FAIR" INDICATES FEW OR NO CLOUDS BELOW 12,000 FEET WITH NO
SIGNIFICANT WEATHER AND/OR OBSTRUCTIONS TO VISIBILITY.

KSZ001>006-013>018-027>032-041>047-190100-
NORTHWEST KANSAS

CITY           SKY/WX    TMP DP  RH WIND       PRES   REMARKS
GOODLAND       CLOUDY    52  12  20 SW8       29.95S
6HR MIN TEMP:  48; 6HR MAX TEMP:  63;

HAYS           CLOUDY    49  18  29 S7        29.97S
HILL CITY      CLOUDY    52  16  24 SW5       29.95R
6HR MIN TEMP:  49; 6HR MAX TEMP:  64;

RUSSELL        CLOUDY    48  25  40 S13       29.95F
6HR MIN TEMP:  42; 6HR MAX TEMP:  60;

$$

KSZ061>065-074>080-084>089-190100-
SOUTHWEST KANSAS

CITY           SKY/WX    TMP DP  RH WIND       PRES   REMARKS
DODGE CITY     CLOUDY    44  15  31 S8        30.01S
6HR MIN TEMP:  44; 6HR MAX TEMP:  59;

ELKHART        MOCLDY    46   9  22 S12       30.00S
GARDEN CITY    CLOUDY    48  10  21 S10       29.98F
6HR MIN TEMP:  48; 6HR MAX TEMP:  62;

GREAT BEND     CLOUDY    45  19  35 S9        30.01R
LIBERAL        CLOUDY    45  10  24 S12       30.01F
PRATT          CLOUDY    41  13  31 S10       30.03S
6HR MIN TEMP:  41; 6HR MAX TEMP:  54;

$$

KSZ066>073-081>083-090>101-190100-
SOUTHEAST KANSAS

CITY           SKY/WX    TMP DP  RH WIND       PRES   REMARKS
CHANUTE        CLOUDY    36  23  59 S9        30.13F
COFFEYVILLE    CLOUDY    40  19  43 S12       30.17S WCI  33
6HR MIN TEMP:  34; 6HR MAX TEMP:  47;

HUTCHINSON     CLOUDY    40  19  43 S8        30.03S
6HR MIN TEMP:  40; 6HR MAX TEMP:  51;

MEDICINE LODGE   N/A     48  20  32 S10       30.04F
NEWTON         CLOUDY    40  24  53 S13       30.05F WCI  32
PARSONS        CLOUDY    40  20  44 S9        30.16S
6HR MIN TEMP:  32; 6HR MAX TEMP:  45;

WICHITA INTL   CLOUDY    45  22  40 S15       30.06F
6HR MIN TEMP:  40; 6HR MAX TEMP:  53;

WICHITA JABRA  CLOUDY    45  23  42 S15       30.06F
6HR MIN TEMP:  38; 6HR MAX TEMP:  51;

WICHITA MCCONL CLOUDY    43  20  40 SW14      30.07F
WINFIELD       CLOUDY    42  17  36 S10       30.12F
6HR MIN TEMP:  42; 6HR MAX TEMP:  51;

$$

KSZ007>012-019>026-033>040-048>060-102>105-190100-
NORTHEAST KANSAS

CITY           SKY/WX    TMP DP  RH WIND       PRES   REMARKS
CONCORDIA      CLOUDY    41  27  57 S17       29.96S
6HR MIN TEMP:  34; 6HR MAX TEMP:  46;

EMPORIA        CLOUDY    40  23  50 S9        30.07S
6HR MIN TEMP:  37; 6HR MAX TEMP:  46;

LAWRENCE       CLOUDY    34  24  67 SE7       30.08F
6HR MIN TEMP:  33; 6HR MAX TEMP:  41;

MANHATTAN      CLOUDY    39  23  52 SW5       30.01F
6HR MIN TEMP:  37; 6HR MAX TEMP:  46;

MARYSVILLE     CLOUDY    36  27  69 S8        29.98S
OLATHE IND     CLOUDY    34  22  61 S12       30.08F WCI  25
6HR MIN TEMP:  31; 6HR MAX TEMP:  39;

OLATHE EXE     CLOUDY    33  21  61 S12       30.08F WCI  24
6HR MIN TEMP:  31; 6HR MAX TEMP:  38;

SALINA         CLOUDY    41  26  55 S12       30.01S
6HR MIN TEMP:  36; 6HR MAX TEMP:  47;

TOPEKA BILLARD CLOUDY    37  26  64 S7        30.05F
6HR MIN TEMP:  34; 6HR MAX TEMP:  43;

TOPEKA FORBES  CLOUDY    38  25  59 S10       30.04F WCI  31
6HR MIN TEMP:  34; 6HR MAX TEMP:  44;

$$




USA.gov is the U.S. government's official web portal to all federal, state and local government web resources and services.